When you browse on this site, cookies collect data to enhance your experience and personalize the content and advertising you see.
Visit our Privacy Policy to learn more. By continuing to use the site, you agree to this use of cookies and data.
  • En España
  • Lista de países
  • Para 7 días
  • Temperatura del agua
  • El tiempo en el mapa
  • Informadores
  • user-avatar
    Iniciar sesión

    Tiempo cada hora Tema

    Hoy, 28 Febrero, Viernes

    Tiempo Temperatura Precipitaciones Viento Presión Humedad
    00:00 +32°C° 0 mm 5 mps 756 mmHg 74%
    01:00 +32°C° 0 mm 5 mps 756 mmHg 75%
    02:00 +30°C° 0 mm 5 mps 755 mmHg 76%
    03:00 +30°C° 0 mm 5 mps 755 mmHg 77%
    04:00 +30°C° 0 mm 5 mps 755 mmHg 77%
    05:00 +30°C° 0 mm 5 mps 756 mmHg 77%
    06:00 +30°C° 0 mm 5 mps 756 mmHg 77%
    07:00 +32°C° 0 mm 5 mps 756 mmHg 72%
    08:00 +33°C° 0 mm 5 mps 757 mmHg 66%
    09:00 +34°C° 0 mm 5 mps 758 mmHg 60%
    10:00 +35°C° 0 mm 5 mps 757 mmHg 55%
    11:00 +37°C° 0 mm 5 mps 757 mmHg 49%
    12:00 +39°C° 0 mm 6 mps 756 mmHg 44%
    13:00 +38°C° 0 mm 6 mps 756 mmHg 47%
    14:00 +38°C° 0 mm 7 mps 755 mmHg 51%
    15:00 +36°C° 0 mm 7 mps 754 mmHg 54%
    16:00 +35°C° 0 mm 7 mps 754 mmHg 57%
    17:00 +34°C° 0 mm 7 mps 755 mmHg 60%
    18:00 +33°C° 0 mm 7 mps 755 mmHg 62%
    19:00 +33°C° 0 mm 7 mps 755 mmHg 63%
    20:00 +33°C° 0 mm 7 mps 756 mmHg 64%
    21:00 +33°C° 0 mm 7 mps 757 mmHg 65%
    22:00 +33°C° 0 mm 7 mps 757 mmHg 66%
    23:00 +32°C° 0 mm 7 mps 756 mmHg 67%

    Mañana, 29 Febrero, Sábado

    Tiempo Temperatura Precipitaciones Viento Presión Humedad
    00:00 +32°C° 0 mm 6 mps 756 mmHg 67%
    01:00 +32°C° 0 mm 6 mps 756 mmHg 69%
    02:00 +32°C° 0 mm 6 mps 755 mmHg 70%
    03:00 +30°C° 0 mm 6 mps 755 mmHg 71%
    04:00 +30°C° 0 mm 6 mps 755 mmHg 72%
    05:00 +30°C° 0 mm 6 mps 755 mmHg 73%
    06:00 +30°C° 0 mm 6 mps 755 mmHg 74%
    07:00 +32°C° 0 mm 6 mps 755 mmHg 68%
    08:00 +33°C° 0 mm 6 mps 756 mmHg 63%
    09:00 +34°C° 0 mm 6 mps 757 mmHg 57%
    10:00 +36°C° 0 mm 6 mps 756 mmHg 52%
    11:00 +38°C° 0 mm 6 mps 756 mmHg 48%
    12:00 +40°C° 0 mm 6 mps 755 mmHg 43%
    13:00 +40°C° 0 mm 7 mps 755 mmHg 44%
    14:00 +39°C° 0 mm 8 mps 754 mmHg 45%
    15:00 +39°C° 0 mm 9 mps 753 mmHg 46%
    16:00 +38°C° 0 mm 9 mps 753 mmHg 54%
    17:00 +35°C° 0 mm 9 mps 753 mmHg 62%
    18:00 +33°C° 0 mm 9 mps 753 mmHg 69%
    19:00 +33°C° 0 mm 8 mps 754 mmHg 71%
    20:00 +32°C° 0 mm 8 mps 755 mmHg 73%
    21:00 +32°C° 0 mm 8 mps 756 mmHg 76%
    22:00 +32°C° 0 mm 7 mps 756 mmHg 76%
    23:00 +32°C° 0 mm 7 mps 756 mmHg 76%

    Pasado mañana, 1 Marzo, Domingo

    Tiempo Temperatura Precipitaciones Viento Presión Humedad
    00:00 +30°C° 0 mm 6 mps 756 mmHg 77%
    01:00 +30°C° 0 mm 6 mps 755 mmHg 77%
    02:00 +30°C° 0 mm 7 mps 755 mmHg 77%
    03:00 +30°C° 0 mm 7 mps 755 mmHg 77%
    04:00 +30°C° 0 mm 7 mps 755 mmHg 76%
    05:00 +30°C° 0 mm 7 mps 755 mmHg 75%
    06:00 +30°C° 0 mm 7 mps 755 mmHg 75%
    07:00 +32°C° 0.1 mm 7 mps 756 mmHg 70%
    08:00 +33°C° 0.1 mm 6 mps 756 mmHg 65%
    09:00 +34°C° 0.1 mm 6 mps 757 mmHg 60%
    10:00 +35°C° 0 mm 6 mps 757 mmHg 57%
    11:00 +36°C° 0 mm 6 mps 756 mmHg 54%
    12:00 +36°C° 0 mm 7 mps 756 mmHg 51%
    13:00 +36°C° 0 mm 7 mps 755 mmHg 52%
    14:00 +36°C° 0 mm 7 mps 755 mmHg 52%
    15:00 +36°C° 0 mm 7 mps 754 mmHg 52%
    16:00 +35°C° 0 mm 7 mps 754 mmHg 57%
    17:00 +34°C° 0 mm 7 mps 755 mmHg 61%
    18:00 +33°C° 0 mm 8 mps 755 mmHg 66%
    19:00 +33°C° 0 mm 7 mps 755 mmHg 68%
    20:00 +32°C° 0 mm 7 mps 756 mmHg 70%
    21:00 +32°C° 0 mm 6 mps 757 mmHg 73%
    22:00 +32°C° 0.3 mm 6 mps 757 mmHg 72%
    23:00 +32°C° 0.3 mm 5 mps 757 mmHg 71%

    2 Marzo, Lunes

    Tiempo Temperatura Precipitaciones Viento Presión Humedad
    00:00 +32°C° 0.3 mm 5 mps 757 mmHg 70%
    01:00 +30°C° 0 mm 5 mps 756 mmHg 70%
    02:00 +30°C° 0 mm 5 mps 756 mmHg 71%
    03:00 +30°C° 0 mm 5 mps 756 mmHg 71%
    04:00 +30°C° 0 mm 5 mps 756 mmHg 72%
    05:00 +30°C° 0 mm 5 mps 756 mmHg 72%
    06:00 +30°C° 0 mm 5 mps 756 mmHg 73%
    07:00 +32°C° 0 mm 5 mps 757 mmHg 68%
    08:00 +33°C° 0 mm 5 mps 757 mmHg 63%
    09:00 +34°C° 0 mm 4 mps 758 mmHg 57%
    10:00 +35°C° 0 mm 4 mps 758 mmHg 55%
    11:00 +35°C° 0 mm 4 mps 757 mmHg 53%
    12:00 +36°C° 0 mm 4 mps 757 mmHg 50%
    13:00 +36°C° 0 mm 4 mps 756 mmHg 51%
    14:00 +36°C° 0 mm 5 mps 756 mmHg 51%
    15:00 +36°C° 0 mm 5 mps 755 mmHg 52%
    16:00 +35°C° 0 mm 5 mps 755 mmHg 56%
    17:00 +34°C° 0 mm 5 mps 756 mmHg 60%
    18:00 +33°C° 0 mm 4 mps 756 mmHg 63%
    19:00 +33°C° 0 mm 4 mps 756 mmHg 65%
    20:00 +32°C° 0 mm 4 mps 757 mmHg 66%
    21:00 +32°C° 0 mm 4 mps 757 mmHg 68%
    22:00 +32°C° 0 mm 4 mps 757 mmHg 68%
    23:00 +32°C° 0 mm 4 mps 757 mmHg 69%

    3 Marzo, Martes

    Tiempo Temperatura Precipitaciones Viento Presión Humedad
    00:00 +31°C° 0 mm 3 mps 757 mmHg 70%
    01:00 +30°C° 0 mm 3 mps 757 mmHg 71%
    02:00 +30°C° 0 mm 4 mps 756 mmHg 72%
    03:00 +30°C° 0 mm 4 mps 756 mmHg 73%
    04:00 +30°C° 0 mm 4 mps 756 mmHg 74%
    05:00 +29°C° 0 mm 4 mps 756 mmHg 75%
    06:00 +29°C° 0 mm 3 mps 756 mmHg 76%
    07:00 +30°C° 0 mm 3 mps 757 mmHg 71%
    08:00 +33°C° 0 mm 3 mps 757 mmHg 66%
    09:00 +34°C° 0 mm 3 mps 758 mmHg 60%
    10:00 +35°C° 0 mm 4 mps 758 mmHg 56%
    11:00 +36°C° 0 mm 4 mps 757 mmHg 53%
    12:00 +37°C° 0 mm 4 mps 757 mmHg 49%
    13:00 +36°C° 0 mm 4 mps 756 mmHg 50%
    14:00 +36°C° 0 mm 4 mps 756 mmHg 51%
    15:00 +36°C° 0 mm 5 mps 755 mmHg 52%
    16:00 +35°C° 0 mm 5 mps 755 mmHg 57%
    17:00 +34°C° 0 mm 5 mps 755 mmHg 62%
    18:00 +33°C° 0 mm 6 mps 755 mmHg 66%
    19:00 +32°C° 0 mm 5 mps 756 mmHg 68%
    20:00 +32°C° 0 mm 5 mps 756 mmHg 70%
    21:00 +32°C° 0 mm 5 mps 757 mmHg 71%
    22:00 +32°C° 0 mm 4 mps 757 mmHg 72%
    23:00 +32°C° 0 mm 4 mps 757 mmHg 74%

    4 Marzo, Miércoles

    Tiempo Temperatura Precipitaciones Viento Presión Humedad
    00:00 +30°C° 0 mm 3 mps 757 mmHg 75%
    01:00 +30°C° 0 mm 4 mps 757 mmHg 75%
    02:00 +30°C° 0 mm 4 mps 756 mmHg 74%
    03:00 +30°C° 0 mm 4 mps 756 mmHg 74%
    04:00 +30°C° 0 mm 4 mps 756 mmHg 74%
    05:00 +30°C° 0 mm 4 mps 756 mmHg 74%
    06:00 +30°C° 0 mm 4 mps 757 mmHg 74%
    07:00 +32°C° 0 mm 4 mps 757 mmHg 68%
    08:00 +33°C° 0 mm 5 mps 757 mmHg 63%
    09:00 +34°C° 0 mm 5 mps 758 mmHg 57%
    10:00 +35°C° 0 mm 5 mps 757 mmHg 53%
    11:00 +36°C° 0 mm 6 mps 757 mmHg 50%
    12:00 +38°C° 0 mm 6 mps 756 mmHg 46%
    13:00 +38°C° 0 mm 6 mps 756 mmHg 48%
    14:00 +36°C° 0 mm 6 mps 755 mmHg 50%
    15:00 +36°C° 0 mm 6 mps 754 mmHg 53%
    16:00 +35°C° 0 mm 7 mps 754 mmHg 58%
    17:00 +34°C° 0 mm 7 mps 755 mmHg 64%
    18:00 +33°C° 0 mm 7 mps 755 mmHg 69%
    19:00 +33°C° 0 mm 6 mps 755 mmHg 69%
    20:00 +33°C° 0 mm 6 mps 756 mmHg 69%
    21:00 +32°C° 0 mm 5 mps 757 mmHg 68%
    22:00 +32°C° 0.2 mm 5 mps 757 mmHg 70%
    23:00 +32°C° 0.2 mm 4 mps 757 mmHg 72%
    Mostrar más